Tracking 28920 objects as of 26-May-2024
HD Live streaming from Space Station
objects crossing your sky now

STARLINK-31621

Track STARLINK-31621 now!
10-day predictions


NORAD ID: 59465
Int'l Code: 2024-068L
Perigee: 450.4 km
Apogee: 452.6 km
Inclination: 43.0 °
Period: 93.5 minutes
Semi major axis: 6822 km
RCS: Unknown
Launch date: April 10, 2024
Source: United States (US)
Launch site: AIR FORCE EASTERN TEST RANGE (AFETR)
Your satellite tracking list
Your tracking list is empty




NASA's NSSDC Master Catalog

Two Line Element Set (TLE):
1 59465U 24068L   24147.46861830 -.00052880  00000-0 -12724-2 0  9996
2 59465  42.9986 147.3747 0001595 276.9282  83.1393 15.40581294  8439
Source of the keplerian elements: AFSPC